{"data":{"norad_id":65672,"intl_designator":"2025-211W","name":"STARLINK-35198","alt_names":[],"object_type":"PAYLOAD","status":"ACTIVE","operator":null,"country":"US","launch_date":"2025-09-19","launch_site_code":"AFWTR","launch_vehicle":null,"mission":null,"orbit_class":"UNKNOWN","rcs_meters":null,"size_class":null,"mass_kg":null,"dimensions":null,"purposes":["comms"],"wikipedia_slug":null,"has_3d_model":false,"image_url":null,"decayed_at":null,"tle_current":{"epoch":"2026-09-20T13:44:51.698976Z","epoch_age_seconds":102498,"freshness":"FRESH","line1":"1 65672U 25211W   26263.57282059  .00012517  00000+0  38919-3 0  9992","line2":"2 65672  97.2848 303.7932 0000264 234.9794 125.1424 15.33461022 56538","mean_motion":15.33461022,"eccentricity":2.64e-5,"inclination_deg":97.2848,"raan_deg":303.7932,"arg_perigee_deg":234.9794,"mean_anomaly_deg":125.1424,"bstar":0.00038919,"rev_number":5653,"period_min":93.90522350036,"perigee_km":465.3148327955,"apogee_km":465.67617659175,"semimajor_km":6843.6325046936,"source":"CELESTRAK","updated_at":"2026-09-21T09:00:35.683517Z"}}}